Time,TemperatureF,DewpointF,PressureIn,WindDirection,WindDirectionDegrees,WindSpeedMPH,WindSpeedGustMPH,Humidity,HourlyPrecipIn,Conditions,Clouds,dailyrainin,SoftwareType,DateUTC
2013-04-21 00:01:00,55.4,48.0,30.22,NNE,21,3.0,6.0,76,0.00,,---,0.09,VWS V14.01,2013-04-21 04:01:00,
2013-04-21 00:06:00,55.6,48.2,30.22,NNE,20,5.0,5.0,76,0.00,,---,0.00,VWS V14.01,2013-04-21 04:06:00,
2013-04-21 00:11:00,55.6,48.5,30.22,NNE,20,4.0,4.0,77,0.00,,---,0.00,VWS V14.01,2013-04-21 04:11:00,
2013-04-21 00:16:00,55.5,48.4,30.23,NNE,29,5.0,5.0,77,0.00,,---,0.00,VWS V14.01,2013-04-21 04:16:00,
2013-04-21 00:21:00,55.4,48.3,30.23,NNE,29,1.0,1.0,77,0.00,,---,0.00,VWS V14.01,2013-04-21 04:21:00,
2013-04-21 00:26:00,55.2,48.1,30.23,NNE,30,4.0,6.0,77,0.00,,---,0.00,VWS V14.01,2013-04-21 04:26:00,
2013-04-21 00:31:00,55.2,48.1,30.23,NNE,31,1.0,1.0,77,0.00,,---,0.00,VWS V14.01,2013-04-21 04:31:00,
2013-04-21 00:36:00,55.2,48.5,30.23,NNE,32,0.0,0.0,78,0.00,,---,0.00,VWS V14.01,2013-04-21 04:36:00,
2013-04-21 00:41:00,55.3,48.6,30.23,NNE,30,2.0,2.0,78,0.00,,---,0.00,VWS V14.01,2013-04-21 04:41:00,
2013-04-21 00:46:00,55.3,48.6,30.23,NNE,30,1.0,1.0,78,0.00,,---,0.00,VWS V14.01,2013-04-21 04:46:00,
2013-04-21 00:51:00,55.3,48.6,30.23,NNE,31,0.0,0.0,78,0.00,,---,0.00,VWS V14.01,2013-04-21 04:51:00,
2013-04-21 00:56:00,55.2,48.5,30.23,NNE,33,3.0,4.0,78,0.00,,---,0.00,VWS V14.01,2013-04-21 04:56:00,
2013-04-21 01:01:00,55.1,48.4,30.23,NE,34,0.0,7.0,78,0.00,,---,0.00,VWS V14.01,2013-04-21 05:01:00,
2013-04-21 01:06:00,55.0,48.3,30.23,NE,34,4.0,4.0,78,0.00,,---,0.00,VWS V14.01,2013-04-21 05:06:00,
2013-04-21 01:11:00,55.0,48.6,30.23,NNE,33,1.0,1.0,79,0.00,,---,0.00,VWS V14.01,2013-04-21 05:11:00,
2013-04-21 01:16:00,54.9,48.5,30.23,NE,37,3.0,4.0,79,0.00,,---,0.00,VWS V14.01,2013-04-21 05:16:00,
2013-04-21 01:21:00,54.9,48.5,30.23,NE,38,7.0,7.0,79,0.00,,---,0.00,VWS V14.01,2013-04-21 05:21:00,
2013-04-21 01:26:00,54.9,48.5,30.23,NE,40,3.0,3.0,79,0.00,,---,0.00,VWS V14.01,2013-04-21 05:26:00,
2013-04-21 01:31:00,54.8,48.4,30.23,NE,40,4.0,9.0,79,0.00,,---,0.00,VWS V14.01,2013-04-21 05:31:00,
2013-04-21 01:36:00,54.8,48.4,30.23,NE,38,4.0,7.0,79,0.00,,---,0.00,VWS V14.01,2013-04-21 05:36:00,
2013-04-21 01:41:00,54.9,48.5,30.23,NE,40,6.0,7.0,79,0.00,,---,0.00,VWS V14.01,2013-04-21 05:41:00,
2013-04-21 01:46:00,54.9,48.5,30.24,NE,40,4.0,7.0,79,0.00,,---,0.00,VWS V14.01,2013-04-21 05:46:00,
2013-04-21 01:51:00,54.9,48.5,30.24,NE,41,0.0,9.0,79,0.00,,---,0.00,VWS V14.01,2013-04-21 05:51:00,
2013-04-21 01:56:00,55.0,48.6,30.24,NE,41,3.0,9.0,79,0.00,,---,0.00,VWS V14.01,2013-04-21 05:56:00,
2013-04-21 02:01:00,55.1,48.4,30.24,NE,42,6.0,8.0,78,0.00,,---,0.00,VWS V14.01,2013-04-21 06:01:00,
2013-04-21 02:06:00,55.0,48.3,30.24,NE,42,0.0,6.0,78,0.00,,---,0.00,VWS V14.01,2013-04-21 06:06:00,
2013-04-21 02:11:00,54.3,47.9,30.24,NE,51,6.0,9.0,79,0.00,,---,0.00,VWS V14.01,2013-04-21 06:11:00,
2013-04-21 02:16:00,54.1,48.1,30.24,NE,53,3.0,7.0,80,0.00,,---,0.00,VWS V14.01,2013-04-21 06:16:00,
2013-04-21 02:21:00,53.9,47.9,30.24,NE,54,4.0,5.0,80,0.00,,---,0.00,VWS V14.01,2013-04-21 06:21:00,
2013-04-21 02:26:00,53.8,47.8,30.24,NE,55,1.0,6.0,80,0.00,,---,0.00,VWS V14.01,2013-04-21 06:26:00,
2013-04-21 02:31:00,53.9,47.9,30.24,NE,55,0.0,6.0,80,0.00,,---,0.00,VWS V14.01,2013-04-21 06:31:00,
2013-04-21 02:36:00,54.1,48.1,30.24,NE,55,3.0,5.0,80,0.00,,---,0.00,VWS V14.01,2013-04-21 06:36:00,
2013-04-21 02:41:00,54.1,48.1,30.24,NE,55,4.0,5.0,80,0.00,,---,0.00,VWS V14.01,2013-04-21 06:41:00,
2013-04-21 02:46:00,54.1,48.4,30.24,NE,55,3.0,7.0,81,0.00,,---,0.00,VWS V14.01,2013-04-21 06:46:00,
2013-04-21 02:51:00,54.1,48.4,30.24,NE,55,3.0,6.0,81,0.00,,---,0.00,VWS V14.01,2013-04-21 06:51:00,
2013-04-21 02:56:00,54.2,48.5,30.24,NE,55,0.0,2.0,81,0.00,,---,0.00,VWS V14.01,2013-04-21 06:56:00,
2013-04-21 03:01:00,54.1,48.7,30.24,NE,55,2.0,2.0,82,0.00,,---,0.00,VWS V14.01,2013-04-21 07:01:00,
2013-04-21 03:06:00,54.0,48.6,30.24,NE,55,3.0,6.0,82,0.00,,---,0.00,VWS V14.01,2013-04-21 07:06:00,
2013-04-21 03:11:00,54.0,48.6,30.24,NE,55,5.0,6.0,82,0.00,,---,0.00,VWS V14.01,2013-04-21 07:11:00,
2013-04-21 03:16:00,54.0,48.6,30.25,NE,55,0.0,6.0,82,0.00,,---,0.00,VWS V14.01,2013-04-21 07:16:00,
2013-04-21 03:21:00,54.0,48.6,30.25,ENE,57,2.0,7.0,82,0.00,,---,0.00,VWS V14.01,2013-04-21 07:21:00,
2013-04-21 03:26:00,53.9,48.5,30.25,ENE,57,4.0,6.0,82,0.00,,---,0.00,VWS V14.01,2013-04-21 07:26:00,
2013-04-21 03:31:00,54.0,48.6,30.24,ENE,57,4.0,7.0,82,0.00,,---,0.00,VWS V14.01,2013-04-21 07:31:00,
2013-04-21 03:36:00,54.0,48.6,30.24,ENE,57,3.0,5.0,82,0.00,,---,0.00,VWS V14.01,2013-04-21 07:36:00,
2013-04-21 03:41:00,54.1,48.4,30.24,ENE,59,4.0,7.0,81,0.00,,---,0.00,VWS V14.01,2013-04-21 07:41:00,
2013-04-21 03:46:00,54.1,48.4,30.25,ENE,59,4.0,7.0,81,0.00,,---,0.00,VWS V14.01,2013-04-21 07:46:00,
2013-04-21 03:51:00,54.2,48.5,30.25,ENE,63,6.0,9.0,81,0.00,,---,0.00,VWS V14.01,2013-04-21 07:51:00,
2013-04-21 03:56:00,54.3,48.6,30.25,ENE,70,2.0,9.0,81,0.00,,---,0.00,VWS V14.01,2013-04-21 07:56:00,
2013-04-21 04:01:00,54.3,48.6,30.25,ENE,69,5.0,9.0,81,0.00,,---,0.00,VWS V14.01,2013-04-21 08:01:00,
2013-04-21 04:06:00,54.2,48.5,30.25,ENE,69,4.0,9.0,81,0.00,,---,0.00,VWS V14.01,2013-04-21 08:06:00,
2013-04-21 04:11:00,54.2,48.5,30.25,ENE,66,7.0,12.0,81,0.00,,---,0.00,VWS V14.01,2013-04-21 08:11:00,
2013-04-21 04:16:00,54.3,48.6,30.25,ENE,65,2.0,10.0,81,0.00,,---,0.00,VWS V14.01,2013-04-21 08:16:00,
2013-04-21 04:21:00,54.3,48.3,30.25,ENE,68,6.0,9.0,80,0.00,,---,0.00,VWS V14.01,2013-04-21 08:21:00,
2013-04-21 04:26:00,54.2,47.8,30.25,ENE,67,3.0,10.0,79,0.00,,---,0.00,VWS V14.01,2013-04-21 08:26:00,
2013-04-21 04:31:00,54.2,47.5,30.26,ENE,59,7.0,11.0,78,0.00,,---,0.00,VWS V14.01,2013-04-21 08:31:00,
2013-04-21 04:36:00,54.4,47.3,30.26,ENE,63,4.0,13.0,77,0.00,,---,0.00,VWS V14.01,2013-04-21 08:36:00,
2013-04-21 04:41:00,54.5,47.1,30.26,ENE,65,6.0,12.0,76,0.00,,---,0.00,VWS V14.01,2013-04-21 08:41:00,
2013-04-21 04:46:00,54.5,47.1,30.26,NE,55,7.0,11.0,76,0.00,,---,0.00,VWS V14.01,2013-04-21 08:46:00,
2013-04-21 04:51:00,54.6,46.5,30.26,ENE,61,14.0,15.0,74,0.00,,---,0.00,VWS V14.01,2013-04-21 08:51:00,
2013-04-21 04:56:00,54.6,46.1,30.26,ENE,65,11.0,15.0,73,0.00,,---,0.00,VWS V14.01,2013-04-21 08:56:00,
2013-04-21 05:01:00,54.5,45.3,30.25,ENE,63,11.0,17.0,71,0.00,,---,0.00,VWS V14.01,2013-04-21 09:01:00,
2013-04-21 05:06:00,54.5,46.4,30.25,ENE,61,11.0,16.0,74,0.00,,---,0.00,VWS V14.01,2013-04-21 09:06:00,
2013-04-21 05:11:00,54.5,45.7,30.25,NE,50,7.0,14.0,72,0.00,,---,0.00,VWS V14.01,2013-04-21 09:11:00,
2013-04-21 05:16:00,54.5,45.3,30.26,ENE,58,14.0,17.0,71,0.00,,---,0.00,VWS V14.01,2013-04-21 09:16:00,
2013-04-21 05:21:00,54.6,45.0,30.26,ENE,62,7.0,14.0,70,0.00,,---,0.00,VWS V14.01,2013-04-21 09:21:00,
2013-04-21 05:26:00,54.4,44.5,30.26,ENE,67,10.0,13.0,69,0.00,,---,0.00,VWS V14.01,2013-04-21 09:26:00,
2013-04-21 05:31:00,54.4,43.7,30.27,ENE,71,9.0,15.0,67,0.00,,---,0.00,VWS V14.01,2013-04-21 09:31:00,
2013-04-21 05:36:00,54.4,43.7,30.27,ENE,66,13.0,15.0,67,0.00,,---,0.00,VWS V14.01,2013-04-21 09:36:00,
2013-04-21 05:41:00,54.5,43.4,30.27,ENE,65,13.0,17.0,66,0.00,,---,0.00,VWS V14.01,2013-04-21 09:41:00,
2013-04-21 05:46:00,54.6,43.1,30.27,ENE,67,11.0,16.0,65,0.00,,---,0.00,VWS V14.01,2013-04-21 09:46:00,
2013-04-21 05:51:00,54.8,43.3,30.27,NE,55,12.0,14.0,65,0.00,,---,0.00,VWS V14.01,2013-04-21 09:51:00,
2013-04-21 05:56:00,55.0,42.7,30.27,ENE,71,13.0,17.0,63,0.00,,---,0.00,VWS V14.01,2013-04-21 09:56:00,
2013-04-21 06:01:00,55.2,43.2,30.27,ENE,63,8.0,17.0,64,0.00,,---,0.00,VWS V14.01,2013-04-21 10:01:00,
2013-04-21 06:06:00,55.1,42.8,30.27,ENE,60,6.0,15.0,63,0.00,,---,0.00,VWS V14.01,2013-04-21 10:06:00,
2013-04-21 06:11:00,55.2,42.4,30.27,NE,53,12.0,17.0,62,0.00,,---,0.00,VWS V14.01,2013-04-21 10:11:00,
2013-04-21 06:16:00,55.2,42.4,30.28,NE,46,16.0,17.0,62,0.00,,---,0.00,VWS V14.01,2013-04-21 10:16:00,
2013-04-21 06:21:00,55.4,42.6,30.28,ENE,59,10.0,18.0,62,0.00,,---,0.00,VWS V14.01,2013-04-21 10:21:00,
2013-04-21 06:26:00,55.4,42.6,30.28,NE,50,11.0,18.0,62,0.00,,---,0.00,VWS V14.01,2013-04-21 10:26:00,
2013-04-21 06:31:00,55.3,42.5,30.29,ENE,60,11.0,16.0,62,0.00,,---,0.00,VWS V14.01,2013-04-21 10:31:00,
2013-04-21 06:35:00,55.3,42.9,30.29,NE,50,14.0,16.0,63,0.00,,---,0.00,VWS V14.01,2013-04-21 10:35:00,
2013-04-21 06:40:00,55.2,43.2,30.29,NE,39,11.0,16.0,64,0.00,,---,0.00,VWS V14.01,2013-04-21 10:40:00,
2013-04-21 06:45:00,55.1,43.6,30.30,NE,48,7.0,15.0,65,0.00,,---,0.00,VWS V14.01,2013-04-21 10:45:00,
2013-04-21 06:50:00,55.0,43.5,30.30,NE,51,11.0,14.0,65,0.00,,---,0.00,VWS V14.01,2013-04-21 10:50:00,
2013-04-21 06:55:00,55.2,43.7,30.30,ENE,69,12.0,17.0,65,0.00,,---,0.00,VWS V14.01,2013-04-21 10:55:00,
2013-04-21 07:00:00,55.4,43.8,30.30,NE,56,6.0,15.0,65,0.00,,---,0.00,VWS V14.01,2013-04-21 11:00:00,
2013-04-21 07:05:00,55.3,43.8,30.30,ENE,62,11.0,18.0,65,0.00,,---,0.00,VWS V14.01,2013-04-21 11:05:00,
2013-04-21 07:10:00,55.5,42.3,30.30,ENE,71,16.0,22.0,61,0.00,,---,0.00,VWS V14.01,2013-04-21 11:10:00,
2013-04-21 07:15:00,55.7,42.9,30.31,ENE,58,9.0,17.0,62,0.00,,---,0.00,VWS V14.01,2013-04-21 11:15:00,
2013-04-21 07:20:00,55.8,43.0,30.31,NE,56,8.0,16.0,62,0.00,,---,0.00,VWS V14.01,2013-04-21 11:20:00,
2013-04-21 07:25:00,56.0,43.2,30.31,NE,44,12.0,16.0,62,0.00,,---,0.00,VWS V14.01,2013-04-21 11:25:00,
2013-04-21 07:30:00,56.1,43.7,30.32,NE,34,4.0,15.0,63,0.00,,---,0.00,VWS V14.01,2013-04-21 11:30:00,
2013-04-21 07:35:00,56.0,43.2,30.32,NE,47,12.0,16.0,62,0.00,,---,0.00,VWS V14.01,2013-04-21 11:35:00,
2013-04-21 07:40:00,56.2,43.4,30.32,NNE,31,4.0,15.0,62,0.00,,---,0.00,VWS V14.01,2013-04-21 11:40:00,
2013-04-21 07:45:00,56.3,43.5,30.33,NE,36,6.0,16.0,62,0.00,,---,0.00,VWS V14.01,2013-04-21 11:45:00,
2013-04-21 07:50:00,56.6,43.3,30.33,ENE,59,11.0,19.0,61,0.00,,---,0.00,VWS V14.01,2013-04-21 11:50:00,
2013-04-21 07:55:00,56.8,43.5,30.33,ENE,57,7.0,16.0,61,0.00,,---,0.00,VWS V14.01,2013-04-21 11:55:00,
2013-04-21 08:00:00,57.1,43.8,30.33,NE,50,10.0,17.0,61,0.00,,---,0.00,VWS V14.01,2013-04-21 12:00:00,
2013-04-21 08:05:00,57.3,44.8,30.33,NNE,25,12.0,15.0,63,0.00,,---,0.00,VWS V14.01,2013-04-21 12:05:00,
2013-04-21 08:10:00,57.2,44.3,30.33,NE,34,12.0,14.0,62,0.00,,---,0.00,VWS V14.01,2013-04-21 12:10:00,
2013-04-21 08:15:00,57.2,45.2,30.33,NE,34,13.0,14.0,64,0.00,,---,0.00,VWS V14.01,2013-04-21 12:15:00,
2013-04-21 08:20:00,57.3,45.7,30.33,NE,47,14.0,17.0,65,0.00,,---,0.00,VWS V14.01,2013-04-21 12:20:00,
2013-04-21 08:25:00,57.4,45.8,30.33,NE,42,5.0,16.0,65,0.00,,---,0.00,VWS V14.01,2013-04-21 12:25:00,
2013-04-21 08:30:00,57.6,45.9,30.34,NE,44,13.0,16.0,65,0.00,,---,0.00,VWS V14.01,2013-04-21 12:30:00,
2013-04-21 08:35:00,57.8,45.3,30.34,NE,42,14.0,19.0,63,0.00,,---,0.00,VWS V14.01,2013-04-21 12:35:00,
2013-04-21 08:40:00,57.9,44.5,30.34,ENE,63,12.0,23.0,61,0.00,,---,0.00,VWS V14.01,2013-04-21 12:40:00,
2013-04-21 08:45:00,58.1,46.0,30.35,NE,53,14.0,23.0,64,0.00,,---,0.00,VWS V14.01,2013-04-21 12:45:00,
2013-04-21 08:50:00,58.2,46.1,30.35,ENE,64,12.0,23.0,64,0.00,,---,0.00,VWS V14.01,2013-04-21 12:50:00,
2013-04-21 08:55:00,58.2,46.1,30.35,NE,51,16.0,23.0,64,0.00,,---,0.00,VWS V14.01,2013-04-21 12:55:00,
2013-04-21 09:00:00,58.4,46.3,30.35,ENE,70,9.0,21.0,64,0.00,,---,0.00,VWS V14.01,2013-04-21 13:00:00,
2013-04-21 09:05:00,58.4,45.9,30.35,ENE,59,17.0,25.0,63,0.00,,---,0.00,VWS V14.01,2013-04-21 13:05:00,
2013-04-21 09:10:00,58.3,45.3,30.35,ENE,61,23.0,28.0,62,0.00,,---,0.00,VWS V14.01,2013-04-21 13:10:00,
2013-04-21 09:15:00,58.4,45.5,30.35,NE,53,15.0,26.0,62,0.00,,---,0.00,VWS V14.01,2013-04-21 13:15:00,
2013-04-21 09:20:00,58.4,45.5,30.35,ENE,70,16.0,25.0,62,0.00,,---,0.00,VWS V14.01,2013-04-21 13:20:00,
2013-04-21 09:25:00,58.4,45.9,30.35,ENE,61,16.0,26.0,63,0.00,,---,0.00,VWS V14.01,2013-04-21 13:25:00,
2013-04-21 09:30:00,58.5,45.5,30.35,ENE,57,16.0,26.0,62,0.00,,---,0.00,VWS V14.01,2013-04-21 13:30:00,
2013-04-21 09:35:00,58.7,45.7,30.35,ENE,64,23.0,28.0,62,0.00,,---,0.00,VWS V14.01,2013-04-21 13:35:00,
2013-04-21 09:40:00,58.9,46.3,30.35,ENE,63,15.0,27.0,63,0.00,,---,0.00,VWS V14.01,2013-04-21 13:40:00,
2013-04-21 09:45:00,59.0,46.0,30.36,ENE,59,16.0,26.0,62,0.00,,---,0.00,VWS V14.01,2013-04-21 13:45:00,
2013-04-21 09:50:00,58.7,45.7,30.36,ENE,67,23.0,30.0,62,0.00,,---,0.00,VWS V14.01,2013-04-21 13:50:00,
2013-04-21 09:55:00,58.6,46.9,30.36,ENE,59,9.0,28.0,65,0.00,,---,0.00,VWS V14.01,2013-04-21 13:55:00,
2013-04-21 10:00:00,58.8,46.7,30.37,NE,41,18.0,29.0,64,0.00,,---,0.00,VWS V14.01,2013-04-21 14:00:00,
2013-04-21 10:05:00,58.7,46.2,30.37,ENE,58,16.0,30.0,63,0.00,,---,0.00,VWS V14.01,2013-04-21 14:05:00,
2013-04-21 10:10:00,59.1,46.5,30.37,NE,47,18.0,26.0,63,0.00,,---,0.00,VWS V14.01,2013-04-21 14:10:00,
2013-04-21 10:15:00,59.3,47.1,30.38,ENE,71,17.0,23.0,64,0.00,,---,0.00,VWS V14.01,2013-04-21 14:15:00,
2013-04-21 10:20:00,59.2,46.6,30.38,NE,44,17.0,28.0,63,0.00,,---,0.00,VWS V14.01,2013-04-21 14:20:00,
2013-04-21 10:25:00,59.0,46.4,30.38,ENE,67,14.0,29.0,63,0.00,,---,0.00,VWS V14.01,2013-04-21 14:25:00,
2013-04-21 10:30:00,59.1,46.5,30.38,ENE,57,16.0,28.0,63,0.00,,---,0.00,VWS V14.01,2013-04-21 14:30:00,
2013-04-21 10:35:00,58.9,46.3,30.38,ENE,61,19.0,26.0,63,0.00,,---,0.00,VWS V14.01,2013-04-21 14:35:00,
2013-04-21 10:40:00,58.7,46.6,30.38,NNE,30,29.0,29.0,64,0.00,,---,0.00,VWS V14.01,2013-04-21 14:40:00,
2013-04-21 10:45:00,58.7,47.0,30.39,ENE,66,17.0,28.0,65,0.00,,---,0.00,VWS V14.01,2013-04-21 14:45:00,
2013-04-21 10:50:00,59.3,47.5,30.39,NE,53,13.0,26.0,65,0.00,,---,0.00,VWS V14.01,2013-04-21 14:50:00,
2013-04-21 10:55:00,59.5,47.3,30.39,NE,49,22.0,28.0,64,0.00,,---,0.00,VWS V14.01,2013-04-21 14:55:00,
2013-04-21 11:00:00,59.2,47.5,30.39,NE,53,19.0,26.0,65,0.00,,---,0.00,VWS V14.01,2013-04-21 15:00:00,
2013-04-21 11:05:00,59.0,46.8,30.39,NE,45,17.0,30.0,64,0.00,,---,0.00,VWS V14.01,2013-04-21 15:05:00,
2013-04-21 11:10:00,58.5,47.2,30.39,NE,46,16.0,26.0,66,0.00,,---,0.00,VWS V14.01,2013-04-21 15:10:00,
2013-04-21 11:15:00,58.8,47.5,30.40,NE,36,16.0,31.0,66,0.00,,---,0.00,VWS V14.01,2013-04-21 15:15:00,
2013-04-21 11:20:00,58.9,47.2,30.40,NE,53,15.0,30.0,65,0.00,,---,0.00,VWS V14.01,2013-04-21 15:20:00,
2013-04-21 11:25:00,58.6,46.5,30.40,East,80,15.0,27.0,64,0.00,,---,0.00,VWS V14.01,2013-04-21 15:25:00,
2013-04-21 11:30:00,59.0,46.4,30.40,ENE,67,24.0,28.0,63,0.00,,---,0.00,VWS V14.01,2013-04-21 15:30:00,
2013-04-21 11:35:00,59.4,46.8,30.40,NE,46,24.0,30.0,63,0.00,,---,0.00,VWS V14.01,2013-04-21 15:35:00,
2013-04-21 11:40:00,59.3,45.9,30.40,NE,40,24.0,28.0,61,0.00,,---,0.00,VWS V14.01,2013-04-21 15:40:00,
2013-04-21 11:45:00,59.4,46.0,30.40,ENE,61,22.0,26.0,61,0.00,,---,0.00,VWS V14.01,2013-04-21 15:45:00,
2013-04-21 11:50:00,59.5,46.9,30.40,NE,46,16.0,28.0,63,0.00,,---,0.00,VWS V14.01,2013-04-21 15:50:00,
2013-04-21 11:55:00,59.1,46.1,30.40,NE,51,22.0,26.0,62,0.00,,---,0.00,VWS V14.01,2013-04-21 15:55:00,
2013-04-21 12:00:00,59.2,45.8,30.40,ENE,64,16.0,25.0,61,0.00,,---,0.00,VWS V14.01,2013-04-21 16:00:00,
2013-04-21 12:05:00,58.9,45.1,30.40,ENE,57,20.0,26.0,60,0.00,,---,0.00,VWS V14.01,2013-04-21 16:05:00,
2013-04-21 12:10:00,59.0,44.3,30.40,ENE,66,19.0,28.0,58,0.00,,---,0.00,VWS V14.01,2013-04-21 16:10:00,
2013-04-21 12:15:00,58.7,43.1,30.40,ENE,63,26.0,33.0,56,0.00,,---,0.00,VWS V14.01,2013-04-21 16:15:00,
2013-04-21 12:20:00,58.6,43.0,30.40,NE,50,22.0,29.0,56,0.00,,---,0.00,VWS V14.01,2013-04-21 16:20:00,
2013-04-21 12:25:00,58.9,44.2,30.40,ENE,65,16.0,27.0,58,0.00,,---,0.00,VWS V14.01,2013-04-21 16:25:00,
2013-04-21 12:30:00,58.9,44.2,30.43,NNE,28,19.0,27.0,58,0.00,,---,0.00,VWS V14.01,2013-04-21 16:30:00,
2013-04-21 12:35:00,59.0,44.7,30.43,ENE,68,15.0,26.0,59,0.00,,---,0.00,VWS V14.01,2013-04-21 16:35:00,
2013-04-21 12:40:00,58.9,43.7,30.43,NE,44,17.0,27.0,57,0.00,,---,0.00,VWS V14.01,2013-04-21 16:40:00,
2013-04-21 12:45:00,58.8,44.1,30.41,NE,55,16.0,31.0,58,0.00,,---,0.00,VWS V14.01,2013-04-21 16:45:00,
2013-04-21 12:50:00,58.9,44.6,30.41,East,81,22.0,27.0,59,0.00,,---,0.00,VWS V14.01,2013-04-21 16:50:00,
2013-04-21 12:55:00,58.7,44.4,30.41,NE,38,18.0,29.0,59,0.00,,---,0.00,VWS V14.01,2013-04-21 16:55:00,
2013-04-21 13:00:00,58.9,45.5,30.41,ENE,61,17.0,25.0,61,0.00,,---,0.00,VWS V14.01,2013-04-21 17:00:00,
2013-04-21 13:05:00,58.4,44.1,30.40,ENE,71,16.0,29.0,59,0.00,,---,0.00,VWS V14.01,2013-04-21 17:05:00,
2013-04-21 13:10:00,58.1,43.0,30.40,ENE,60,22.0,33.0,57,0.00,,---,0.00,VWS V14.01,2013-04-21 17:10:00,
2013-04-21 13:15:00,58.3,43.6,30.40,ENE,69,16.0,31.0,58,0.00,,---,0.00,VWS V14.01,2013-04-21 17:15:00,
2013-04-21 13:20:00,58.7,43.1,30.41,ENE,72,21.0,32.0,56,0.00,,---,0.00,VWS V14.01,2013-04-21 17:20:00,
2013-04-21 13:25:00,58.4,42.3,30.41,ENE,69,20.0,29.0,55,0.00,,---,0.00,VWS V14.01,2013-04-21 17:25:00,
2013-04-21 13:30:00,58.2,43.1,30.41,ENE,59,15.0,30.0,57,0.00,,---,0.00,VWS V14.01,2013-04-21 17:30:00,
2013-04-21 13:35:00,58.6,43.4,30.40,NE,44,16.0,27.0,57,0.00,,---,0.00,VWS V14.01,2013-04-21 17:35:00,
2013-04-21 13:40:00,58.7,43.1,30.40,NE,56,16.0,27.0,56,0.00,,---,0.00,VWS V14.01,2013-04-21 17:40:00,
2013-04-21 13:45:00,58.9,43.2,30.40,NE,54,13.0,23.0,56,0.00,,---,0.00,VWS V14.01,2013-04-21 17:45:00,
2013-04-21 13:50:00,58.7,43.1,30.40,ENE,65,22.0,28.0,56,0.00,,---,0.00,VWS V14.01,2013-04-21 17:50:00,
2013-04-21 13:55:00,58.6,41.5,30.40,East,79,19.0,25.0,53,0.00,,---,0.00,VWS V14.01,2013-04-21 17:55:00,
2013-04-21 14:00:00,58.6,43.0,30.40,ENE,66,22.0,25.0,56,0.00,,---,0.00,VWS V14.01,2013-04-21 18:00:00,
2013-04-21 14:05:00,58.9,43.2,30.41,ENE,73,20.0,23.0,56,0.00,,---,0.00,VWS V14.01,2013-04-21 18:05:00,
2013-04-21 14:10:00,58.4,43.7,30.41,ENE,74,18.0,28.0,58,0.00,,---,0.00,VWS V14.01,2013-04-21 18:10:00,
2013-04-21 14:15:00,58.7,44.4,30.41,NE,45,23.0,30.0,59,0.00,,---,0.00,VWS V14.01,2013-04-21 18:15:00,
2013-04-21 14:20:00,58.7,44.9,30.41,ENE,77,12.0,24.0,60,0.00,,---,0.00,VWS V14.01,2013-04-21 18:20:00,
2013-04-21 14:25:00,58.6,43.9,30.41,NE,34,17.0,29.0,58,0.00,,---,0.00,VWS V14.01,2013-04-21 18:25:00,
2013-04-21 14:30:00,58.2,43.5,30.41,ENE,59,13.0,23.0,58,0.00,,---,0.00,VWS V14.01,2013-04-21 18:30:00,
2013-04-21 14:35:00,58.5,44.7,30.40,ENE,76,23.0,26.0,60,0.00,,---,0.00,VWS V14.01,2013-04-21 18:35:00,
2013-04-21 14:40:00,58.4,44.1,30.40,NE,53,18.0,29.0,59,0.00,,---,0.00,VWS V14.01,2013-04-21 18:40:00,
2013-04-21 14:45:00,58.4,43.7,30.40,ENE,57,18.0,26.0,58,0.00,,---,0.00,VWS V14.01,2013-04-21 18:45:00,
2013-04-21 14:50:00,58.3,43.6,30.41,NE,45,25.0,29.0,58,0.00,,---,0.00,VWS V14.01,2013-04-21 18:50:00,
2013-04-21 14:55:00,58.2,44.0,30.41,NE,47,18.0,27.0,59,0.00,,---,0.00,VWS V14.01,2013-04-21 18:55:00,
2013-04-21 15:00:00,58.0,44.2,30.41,NE,42,15.0,29.0,60,0.00,,---,0.00,VWS V14.01,2013-04-21 19:00:00,
2013-04-21 15:05:00,58.3,44.0,30.40,NE,45,15.0,26.0,59,0.00,,---,0.00,VWS V14.01,2013-04-21 19:05:00,
2013-04-21 15:10:00,58.5,43.8,30.40,ENE,65,17.0,29.0,58,0.00,,---,0.00,VWS V14.01,2013-04-21 19:10:00,
2013-04-21 15:15:00,58.2,43.1,30.40,ENE,72,15.0,28.0,57,0.00,,---,0.00,VWS V14.01,2013-04-21 19:15:00,
2013-04-21 15:20:00,58.0,44.6,30.39,NE,52,18.0,24.0,61,0.00,,---,0.00,VWS V14.01,2013-04-21 19:20:00,
2013-04-21 15:25:00,58.0,44.2,30.39,NE,35,12.0,29.0,60,0.00,,---,0.00,VWS V14.01,2013-04-21 19:25:00,
2013-04-21 15:30:00,58.2,44.4,30.39,ENE,61,16.0,27.0,60,0.00,,---,0.00,VWS V14.01,2013-04-21 19:30:00,
2013-04-21 15:35:00,58.3,44.9,30.39,NE,55,10.0,25.0,61,0.00,,---,0.00,VWS V14.01,2013-04-21 19:35:00,
2013-04-21 15:40:00,58.4,44.1,30.39,East,92,22.0,25.0,59,0.00,,---,0.00,VWS V14.01,2013-04-21 19:40:00,
2013-04-21 15:45:00,58.3,44.0,30.39,ENE,60,20.0,30.0,59,0.00,,---,0.00,VWS V14.01,2013-04-21 19:45:00,
2013-04-21 15:50:00,58.1,43.4,30.39,NE,56,17.0,25.0,58,0.00,,---,0.00,VWS V14.01,2013-04-21 19:50:00,
2013-04-21 15:55:00,58.0,44.2,30.39,ENE,66,23.0,24.0,60,0.00,,---,0.00,VWS V14.01,2013-04-21 19:55:00,
2013-04-21 16:00:00,58.3,43.6,30.39,NE,53,14.0,25.0,58,0.00,,---,0.00,VWS V14.01,2013-04-21 20:00:00,
2013-04-21 16:05:00,58.4,43.7,30.39,ENE,63,18.0,25.0,58,0.00,,---,0.00,VWS V14.01,2013-04-21 20:05:00,
2013-04-21 16:10:00,58.2,44.0,30.39,NE,50,10.0,25.0,59,0.00,,---,0.00,VWS V14.01,2013-04-21 20:10:00,
2013-04-21 16:15:00,58.0,42.4,30.39,NE,49,20.0,30.0,56,0.00,,---,0.00,VWS V14.01,2013-04-21 20:15:00,
2013-04-21 16:20:00,57.9,44.1,30.38,NE,43,17.0,27.0,60,0.00,,---,0.00,VWS V14.01,2013-04-21 20:20:00,
2013-04-21 16:25:00,57.9,43.2,30.38,NE,48,19.0,27.0,58,0.00,,---,0.00,VWS V14.01,2013-04-21 20:25:00,
2013-04-21 16:30:00,57.8,43.6,30.38,NE,50,17.0,28.0,59,0.00,,---,0.00,VWS V14.01,2013-04-21 20:30:00,
2013-04-21 16:35:00,57.6,43.8,30.38,ENE,73,21.0,24.0,60,0.00,,---,0.00,VWS V14.01,2013-04-21 20:35:00,
2013-04-21 16:40:00,57.0,42.4,30.38,East,79,20.0,28.0,58,0.00,,---,0.00,VWS V14.01,2013-04-21 20:40:00,
2013-04-21 16:45:00,57.2,44.3,30.38,ENE,71,14.0,26.0,62,0.00,,---,0.00,VWS V14.01,2013-04-21 20:45:00,
2013-04-21 16:50:00,57.0,43.7,30.38,NE,53,20.0,30.0,61,0.00,,---,0.00,VWS V14.01,2013-04-21 20:50:00,
2013-04-21 16:55:00,56.5,43.2,30.38,ENE,69,14.0,32.0,61,0.00,,---,0.00,VWS V14.01,2013-04-21 20:55:00,
2013-04-21 17:00:00,56.7,43.8,30.38,ENE,58,18.0,24.0,62,0.00,,---,0.00,VWS V14.01,2013-04-21 21:00:00,
2013-04-21 17:05:00,56.8,44.8,30.38,NE,51,26.0,26.0,64,0.00,,---,0.00,VWS V14.01,2013-04-21 21:05:00,
2013-04-21 17:10:00,56.4,44.4,30.38,ENE,69,12.0,26.0,64,0.00,,---,0.00,VWS V14.01,2013-04-21 21:10:00,
2013-04-21 17:15:00,56.3,43.9,30.38,ENE,72,21.0,29.0,63,0.00,,---,0.00,VWS V14.01,2013-04-21 21:15:00,
2013-04-21 17:20:00,56.5,44.9,30.37,ENE,61,16.0,28.0,65,0.00,,---,0.00,VWS V14.01,2013-04-21 21:20:00,
2013-04-21 17:25:00,56.3,44.3,30.37,NE,51,14.0,24.0,64,0.00,,---,0.00,VWS V14.01,2013-04-21 21:25:00,
2013-04-21 17:30:00,56.0,43.6,30.37,NE,44,21.0,29.0,63,0.00,,---,0.00,VWS V14.01,2013-04-21 21:30:00,
2013-04-21 17:35:00,55.8,42.6,30.38,NE,44,19.0,28.0,61,0.00,,---,0.00,VWS V14.01,2013-04-21 21:35:00,
2013-04-21 17:40:00,55.7,41.6,30.38,ENE,63,27.0,30.0,59,0.00,,---,0.00,VWS V14.01,2013-04-21 21:40:00,
2013-04-21 17:45:00,55.4,42.6,30.38,ENE,70,17.0,26.0,62,0.00,,---,0.00,VWS V14.01,2013-04-21 21:45:00,
2013-04-21 17:50:00,55.5,43.1,30.37,ENE,71,23.0,27.0,63,0.00,,---,0.00,VWS V14.01,2013-04-21 21:50:00,
2013-04-21 17:55:00,55.6,43.2,30.37,NE,39,21.0,25.0,63,0.00,,---,0.00,VWS V14.01,2013-04-21 21:55:00,
2013-04-21 18:00:00,55.2,43.2,30.37,ENE,57,17.0,29.0,64,0.00,,---,0.00,VWS V14.01,2013-04-21 22:00:00,
2013-04-21 18:05:00,55.0,43.1,30.37,ENE,71,26.0,32.0,64,0.00,,---,0.00,VWS V14.01,2013-04-21 22:05:00,
2013-04-21 18:10:00,55.1,42.8,30.37,NE,34,13.0,29.0,63,0.00,,---,0.00,VWS V14.01,2013-04-21 22:10:00,
2013-04-21 18:15:00,54.8,42.5,30.37,NE,49,25.0,33.0,63,0.00,,---,0.00,VWS V14.01,2013-04-21 22:15:00,
2013-04-21 18:20:00,54.8,42.9,30.36,ENE,61,18.0,28.0,64,0.00,,---,0.00,VWS V14.01,2013-04-21 22:20:00,
2013-04-21 18:25:00,54.8,42.0,30.36,NE,55,17.0,26.0,62,0.00,,---,0.00,VWS V14.01,2013-04-21 22:25:00,
2013-04-21 18:30:00,54.8,42.5,30.36,NE,47,18.0,27.0,63,0.00,,---,0.00,VWS V14.01,2013-04-21 22:30:00,
2013-04-21 18:35:00,54.6,41.9,30.36,ENE,61,14.0,27.0,62,0.00,,---,0.00,VWS V14.01,2013-04-21 22:35:00,
2013-04-21 18:40:00,54.6,41.9,30.36,ENE,63,12.0,27.0,62,0.00,,---,0.00,VWS V14.01,2013-04-21 22:40:00,
2013-04-21 18:44:00,54.6,42.3,30.36,NE,45,16.0,27.0,63,0.00,,---,0.00,VWS V14.01,2013-04-21 22:44:00,
2013-04-21 18:49:00,54.4,41.2,30.36,ENE,61,11.0,28.0,61,0.00,,---,0.00,VWS V14.01,2013-04-21 22:49:00,
2013-04-21 18:54:00,54.3,41.6,30.36,NE,55,13.0,27.0,62,0.00,,---,0.00,VWS V14.01,2013-04-21 22:54:00,
2013-04-21 18:59:00,54.3,42.0,30.36,ENE,57,13.0,26.0,63,0.00,,---,0.00,VWS V14.01,2013-04-21 22:59:00,
2013-04-21 19:04:00,54.3,41.2,30.36,ENE,59,19.0,27.0,61,0.00,,---,0.00,VWS V14.01,2013-04-21 23:04:00,
2013-04-21 19:09:00,54.2,42.3,30.36,ENE,67,19.0,28.0,64,0.00,,---,0.00,VWS V14.01,2013-04-21 23:09:00,
2013-04-21 19:14:00,54.2,41.9,30.36,NE,45,24.0,24.0,63,0.00,,---,0.00,VWS V14.01,2013-04-21 23:14:00,
2013-04-21 19:20:00,54.0,41.7,30.36,NE,41,15.0,21.0,63,0.00,,---,0.00,VWS V14.01,2013-04-21 23:20:00,
2013-04-21 19:25:00,54.0,41.3,30.36,ENE,59,18.0,24.0,62,0.00,,---,0.00,VWS V14.01,2013-04-21 23:25:00,
2013-04-21 19:29:00,53.9,40.8,30.36,NE,40,21.0,25.0,61,0.00,,---,0.00,VWS V14.01,2013-04-21 23:29:00,
2013-04-21 19:34:00,53.7,41.0,30.36,ENE,61,20.0,24.0,62,0.00,,---,0.00,VWS V14.01,2013-04-21 23:34:00,
2013-04-21 19:39:00,53.6,40.5,30.36,NE,51,17.0,25.0,61,0.00,,---,0.00,VWS V14.01,2013-04-21 23:39:00,
2013-04-21 19:44:00,53.4,41.1,30.36,NE,51,13.0,23.0,63,0.00,,---,0.00,VWS V14.01,2013-04-21 23:44:00,
2013-04-21 19:49:00,53.2,40.5,30.36,ENE,62,17.0,29.0,62,0.00,,---,0.00,VWS V14.01,2013-04-21 23:49:00,
2013-04-21 19:54:00,53.1,40.4,30.36,ENE,59,15.0,25.0,62,0.00,,---,0.00,VWS V14.01,2013-04-21 23:54:00,
2013-04-21 19:59:00,53.0,40.3,30.36,NNE,32,15.0,27.0,62,0.00,,---,0.00,VWS V14.01,2013-04-21 23:59:00,
2013-04-21 20:04:00,52.9,40.2,30.36,ENE,63,12.0,29.0,62,0.00,,---,0.00,VWS V14.01,2013-04-22 00:04:00,
2013-04-21 20:09:00,52.8,39.7,30.36,NE,43,17.0,25.0,61,0.00,,---,0.00,VWS V14.01,2013-04-22 00:09:00,
2013-04-21 20:14:00,52.6,39.1,30.36,NE,48,23.0,25.0,60,0.00,,---,0.00,VWS V14.01,2013-04-22 00:14:00,
2013-04-21 20:19:00,52.5,39.5,30.36,NE,46,19.0,20.0,61,0.00,,---,0.00,VWS V14.01,2013-04-22 00:19:00,
2013-04-21 20:24:00,52.4,38.5,30.36,ENE,59,19.0,22.0,59,0.00,,---,0.00,VWS V14.01,2013-04-22 00:24:00,
2013-04-21 20:29:00,52.3,38.4,30.36,NE,53,16.0,26.0,59,0.00,,---,0.00,VWS V14.01,2013-04-22 00:29:00,
2013-04-21 20:34:00,52.3,39.3,30.37,NE,49,18.0,20.0,61,0.00,,---,0.00,VWS V14.01,2013-04-22 00:34:00,
2013-04-21 20:39:00,52.1,39.1,30.37,NE,51,11.0,24.0,61,0.00,,---,0.00,VWS V14.01,2013-04-22 00:39:00,
2013-04-21 20:44:00,52.1,38.7,30.37,NE,53,17.0,25.0,60,0.00,,---,0.00,VWS V14.01,2013-04-22 00:44:00,
2013-04-21 20:49:00,52.0,39.0,30.38,NE,51,18.0,26.0,61,0.00,,---,0.00,VWS V14.01,2013-04-22 00:49:00,
2013-04-21 20:54:00,51.9,38.9,30.38,ENE,58,15.0,22.0,61,0.00,,---,0.00,VWS V14.01,2013-04-22 00:54:00,
2013-04-21 20:59:00,51.8,38.8,30.38,NE,46,14.0,20.0,61,0.00,,---,0.00,VWS V14.01,2013-04-22 00:59:00,
2013-04-21 21:04:00,51.8,38.8,30.39,NNE,20,18.0,20.0,61,0.00,,---,0.00,VWS V14.01,2013-04-22 01:04:00,
2013-04-21 21:09:00,51.7,38.7,30.39,NE,47,11.0,20.0,61,0.00,,---,0.00,VWS V14.01,2013-04-22 01:09:00,
2013-04-21 21:14:00,51.5,38.5,30.39,NE,44,7.0,23.0,61,0.00,,---,0.00,VWS V14.01,2013-04-22 01:14:00,
2013-04-21 21:19:00,51.3,38.3,30.41,NE,42,8.0,21.0,61,0.00,,---,0.00,VWS V14.01,2013-04-22 01:19:00,
2013-04-21 21:24:00,51.3,38.7,30.41,NNE,19,10.0,24.0,62,0.00,,---,0.00,VWS V14.01,2013-04-22 01:24:00,
2013-04-21 21:29:00,51.2,38.6,30.41,NNE,14,21.0,27.0,62,0.00,,---,0.00,VWS V14.01,2013-04-22 01:29:00,
2013-04-21 21:34:00,51.2,39.5,30.41,NE,48,12.0,22.0,64,0.00,,---,0.00,VWS V14.01,2013-04-22 01:34:00,
2013-04-21 21:39:00,51.0,39.7,30.41,NNE,29,16.0,25.0,65,0.00,,---,0.00,VWS V14.01,2013-04-22 01:39:00,
2013-04-21 21:44:00,50.8,39.9,30.41,ENE,59,13.0,26.0,66,0.00,,---,0.00,VWS V14.01,2013-04-22 01:44:00,
2013-04-21 21:49:00,50.8,40.6,30.41,NNE,28,14.0,25.0,68,0.00,,---,0.00,VWS V14.01,2013-04-22 01:49:00,
2013-04-21 21:54:00,50.7,40.5,30.41,NE,38,17.0,22.0,68,0.00,,---,0.00,VWS V14.01,2013-04-22 01:54:00,
2013-04-21 21:59:00,50.6,41.2,30.41,NNE,24,12.0,22.0,70,0.00,,---,0.00,VWS V14.01,2013-04-22 01:59:00,
2013-04-21 22:04:00,50.6,41.6,30.41,NE,38,12.0,23.0,71,0.00,,---,0.00,VWS V14.01,2013-04-22 02:04:00,
2013-04-21 22:09:00,50.5,41.8,30.41,ENE,61,12.0,20.0,72,0.00,,---,0.00,VWS V14.01,2013-04-22 02:09:00,
2013-04-21 22:14:00,50.5,42.5,30.41,NE,42,9.0,20.0,74,0.00,,---,0.00,VWS V14.01,2013-04-22 02:14:00,
2013-04-21 22:19:00,50.5,42.9,30.40,NE,46,13.0,17.0,75,0.00,,---,0.00,VWS V14.01,2013-04-22 02:19:00,
2013-04-21 22:24:00,50.4,42.8,30.40,NNE,28,20.0,23.0,75,0.00,,---,0.00,VWS V14.01,2013-04-22 02:24:00,
2013-04-21 22:29:00,50.5,43.2,30.40,NE,44,14.0,21.0,76,0.00,,---,0.00,VWS V14.01,2013-04-22 02:29:00,
2013-04-21 22:34:00,50.5,43.6,30.40,NNE,21,14.0,21.0,77,0.00,,---,0.00,VWS V14.01,2013-04-22 02:34:00,
2013-04-21 22:39:00,50.6,43.7,30.40,NE,40,7.0,16.0,77,0.00,,---,0.00,VWS V14.01,2013-04-22 02:39:00,
2013-04-21 22:44:00,50.4,43.8,30.40,ENE,57,15.0,19.0,78,0.00,,---,0.00,VWS V14.01,2013-04-22 02:44:00,
2013-04-21 22:49:00,50.4,43.8,30.39,ENE,58,7.0,18.0,78,0.00,,---,0.00,VWS V14.01,2013-04-22 02:49:00,
2013-04-21 22:54:00,50.4,44.1,30.39,ENE,62,13.0,22.0,79,0.00,,---,0.00,VWS V14.01,2013-04-22 02:54:00,
2013-04-21 22:59:00,50.3,44.0,30.39,NNE,28,12.0,18.0,79,0.00,,---,0.00,VWS V14.01,2013-04-22 02:59:00,
2013-04-21 23:04:00,50.2,44.0,30.38,NNE,22,16.0,17.0,79,0.00,,---,0.00,VWS V14.01,2013-04-22 03:04:00,
2013-04-21 23:09:00,50.3,44.4,30.38,NE,36,12.0,19.0,80,0.00,,---,0.00,VWS V14.01,2013-04-22 03:09:00,
2013-04-21 23:14:00,50.2,44.3,30.38,NE,50,15.0,21.0,80,0.00,,---,0.00,VWS V14.01,2013-04-22 03:14:00,
2013-04-21 23:19:00,50.2,44.3,30.38,NNE,22,11.0,22.0,80,0.00,,---,0.00,VWS V14.01,2013-04-22 03:19:00,
2013-04-21 23:24:00,50.3,44.7,30.38,NE,36,6.0,16.0,81,0.00,,---,0.00,VWS V14.01,2013-04-22 03:24:00,
2013-04-21 23:29:00,50.2,44.6,30.38,NE,37,13.0,22.0,81,0.00,,---,0.00,VWS V14.01,2013-04-22 03:29:00,
2013-04-21 23:34:00,50.4,45.1,30.38,North,10,14.0,16.0,82,0.00,,---,0.00,VWS V14.01,2013-04-22 03:34:00,
2013-04-21 23:39:00,50.3,45.0,30.38,NNE,25,11.0,23.0,82,0.00,,---,0.00,VWS V14.01,2013-04-22 03:39:00,
2013-04-21 23:44:00,50.5,45.2,30.38,NE,38,17.0,20.0,82,0.00,,---,0.00,VWS V14.01,2013-04-22 03:44:00,
2013-04-21 23:49:00,50.5,45.2,30.37,NE,35,15.0,23.0,82,0.00,,---,0.00,VWS V14.01,2013-04-22 03:49:00,
2013-04-21 23:54:00,50.8,45.8,30.37,NNE,30,12.0,21.0,83,0.00,,---,0.00,VWS V14.01,2013-04-22 03:54:00,
2013-04-21 23:59:00,50.9,45.9,30.37,NNE,25,17.0,21.0,83,0.00,,---,0.00,VWS V14.01,2013-04-22 03:59:00,